This demonstration page uses our WeatherBlox Daily Observations layout. Learn more.

38.88101, -77.10428

Hourly Observations for March 22, 2016

Temp ( °F °C ) Dew Point ( °F °C ) Humidity (%) Winds ( mph kmh ) Pressure ( in mb ) Visibility ( mi km ) Precip ( " mm )
12:52 am 00:52 Mostly Clear 41 5 21 -6.1 45 45 W 3 6 30.15 1021 10 16.09344 0 0
1:52 am 01:52 Mostly Clear 40 4.4 24 -4.4 53 53 WNW 3 6 30.18 1022 10 16.09344 0 0
2:52 am 02:52 Mostly Clear 36 2.2 25 -3.9 64 64 SW 6 9 30.18 1022 10 16.09344 0 0
3:52 am 03:52 Mostly Clear 37 2.8 26 -3.3 65 65 SW 3 6 30.18 1022 10 16.09344 0 0
4:52 am 04:52 Mostly Clear 37 2.8 26 -3.3 65 65 Calm 30.21 1023 10 16.09344 0 0
5:52 am 05:52 Mostly Cloudy 37 2.8 26 -3.3 65 65 SSW 3 6 30.21 1023 10 16.09344 0 0
6:52 am 06:52 Mostly Cloudy 37 2.8 27 -2.8 67 67 SW 3 6 30.21 1023 10 16.09344 0 0
7:52 am 07:52 Mostly Cloudy 38 3.3 29 -1.7 70 70 Calm 30.24 1024 10 16.09344 0 0
8:52 am 08:52 Cloudy 42 5.6 32 0 68 68 S 8 13 30.24 1024 10 16.09344 0 0
9:52 am 09:52 Cloudy 44 6.7 32 0 63 63 S 10 17 30.27 1025 10 16.09344 0 0
10:52 am 10:52 Cloudy 47 8.3 30 -1.1 52 52 S 8 13 30.27 1025 10 16.09344 0 0
11:52 am 11:52 Cloudy 52 11.1 29 -1.7 41 41 SW 12 19 30.24 1024 10 16.09344 0 0
12:52 pm 12:52 Mostly Cloudy 55 12.8 29 -1.7 37 37 WSW 13 20 30.21 1023 10 16.09344 0 0
1:52 pm 13:52 Partly Cloudy 58 14.4 29 -1.7 33 33 SSW 15 24 30.15 1021 10 16.09344 0 0
2:52 pm 14:52 Partly Cloudy 59 15 29 -1.7 32 32 S 16 26 30.12 1020 10 16.09344 0 0
3:52 pm 15:52 Mostly Sunny 61 16.1 29 -1.7 30 30 SSW 16 26 30.09 1019 10 16.09344 0 0
4:52 pm 16:52 Mostly Cloudy 61 16.1 29 -1.7 30 30 S 16 26 30.06 1018 10 16.09344 0 0
5:52 pm 17:52 Partly Cloudy 62 16.7 28 -2.2 28 28 SSW 14 22 30.06 1018 10 16.09344 0 0
6:52 pm 18:52 Partly Cloudy 60 15.6 30 -1.1 32 32 S 12 19 30.03 1017 10 16.09344 0 0
7:52 pm 19:52 Partly Cloudy 57 13.9 35 1.7 44 44 S 12 19 30.03 1017 10 16.09344 0 0
8:52 pm 20:52 Mostly Clear 56 13.3 36 2.2 47 47 S 13 20 30.03 1017 10 16.09344 0 0
9:52 pm 21:52 Mostly Clear 54 12.2 38 3.3 55 55 S 14 22 30.03 1017 10 16.09344 0 0
10:52 pm 22:52 Mostly Clear 56 13.3 30 -1.1 37 37 SSW 16 26 30 1016 10 16.09344 0 0
11:52 pm 23:52 Mostly Clear 56 13.3 31 -0.6 39 39 S 16 26 30 1016 10 16.09344 0 0

Powered by AerisWeather